Year,Month,Day,Hour,Minute,Value (Times are PST for insolation in W/m^2)
2022,02,28,00,00,0.00
2022,02,28,00,01,0.00
2022,02,28,00,02,0.00
2022,02,28,00,03,0.00
2022,02,28,00,04,0.00
2022,02,28,00,05,0.00
2022,02,28,00,06,0.00
2022,02,28,00,07,0.00
2022,02,28,00,08,0.00
2022,02,28,00,09,0.00
2022,02,28,00,10,0.00
2022,02,28,00,11,0.00
2022,02,28,00,12,0.00
2022,02,28,00,13,0.00
2022,02,28,00,14,0.00
2022,02,28,00,15,0.00
2022,02,28,00,16,0.00
2022,02,28,00,17,0.00
2022,02,28,00,18,0.00
2022,02,28,00,19,0.00
2022,02,28,00,20,0.00
2022,02,28,00,21,0.00
2022,02,28,00,22,0.00
2022,02,28,00,23,0.00
2022,02,28,00,24,0.00
2022,02,28,00,25,0.00
2022,02,28,00,26,0.00
2022,02,28,00,27,0.00
2022,02,28,00,28,0.00
2022,02,28,00,29,0.00
2022,02,28,00,30,0.00
2022,02,28,00,31,0.00
2022,02,28,00,32,0.00
2022,02,28,00,33,0.00
2022,02,28,00,34,0.00
2022,02,28,00,35,0.00
2022,02,28,00,36,0.00
2022,02,28,00,37,0.00
2022,02,28,00,38,0.00
2022,02,28,00,39,0.00
2022,02,28,00,40,0.00
2022,02,28,00,41,0.00
2022,02,28,00,42,0.00
2022,02,28,00,43,0.00
2022,02,28,00,44,0.00
2022,02,28,00,45,0.00
2022,02,28,00,46,0.00
2022,02,28,00,47,0.00
2022,02,28,00,48,0.00
2022,02,28,00,49,0.00
2022,02,28,00,50,0.00
2022,02,28,00,51,0.00
2022,02,28,00,52,0.00
2022,02,28,00,53,0.00
2022,02,28,00,54,0.00
2022,02,28,00,55,0.00
2022,02,28,00,56,0.00
2022,02,28,00,57,0.00
2022,02,28,00,58,0.00
2022,02,28,00,59,0.00
2022,02,28,01,00,0.00
2022,02,28,01,01,0.00
2022,02,28,01,02,0.00
2022,02,28,01,03,0.00
2022,02,28,01,04,0.00
2022,02,28,01,05,0.00
2022,02,28,01,06,0.00
2022,02,28,01,07,0.00
2022,02,28,01,08,0.00
2022,02,28,01,09,0.00
2022,02,28,01,10,0.00
2022,02,28,01,11,0.00
2022,02,28,01,12,0.00
2022,02,28,01,13,0.00
2022,02,28,01,14,0.00
2022,02,28,01,15,0.00
2022,02,28,01,16,0.00
2022,02,28,01,17,0.00
2022,02,28,01,18,0.00
2022,02,28,01,19,0.00
2022,02,28,01,20,0.00
2022,02,28,01,21,0.00
2022,02,28,01,22,0.00
2022,02,28,01,23,0.00
2022,02,28,01,24,0.00
2022,02,28,01,25,0.00
2022,02,28,01,26,0.00
2022,02,28,01,27,0.00
2022,02,28,01,28,0.00
2022,02,28,01,29,0.00
2022,02,28,01,30,0.00
2022,02,28,01,31,0.00
2022,02,28,01,32,0.00
2022,02,28,01,33,0.00
2022,02,28,01,34,0.00
2022,02,28,01,35,0.00
2022,02,28,01,36,0.00
2022,02,28,01,37,0.00
2022,02,28,01,38,0.00
2022,02,28,01,39,0.00
2022,02,28,01,40,0.00
2022,02,28,01,41,0.00
2022,02,28,01,42,0.00
2022,02,28,01,43,0.00
2022,02,28,01,44,0.00
2022,02,28,01,45,0.00
2022,02,28,01,46,0.00
2022,02,28,01,47,0.00
2022,02,28,01,48,0.00
2022,02,28,01,49,0.00
2022,02,28,01,50,0.00
2022,02,28,01,51,0.00
2022,02,28,01,52,0.00
2022,02,28,01,53,0.00
2022,02,28,01,54,0.00
2022,02,28,01,55,0.00
2022,02,28,01,56,0.00
2022,02,28,01,57,0.00
2022,02,28,01,58,0.00
2022,02,28,01,59,0.00
2022,02,28,02,00,0.00
2022,02,28,02,01,0.00
2022,02,28,02,02,0.00
2022,02,28,02,03,0.00
2022,02,28,02,04,0.00
2022,02,28,02,05,0.00
2022,02,28,02,06,0.00
2022,02,28,02,07,0.00
2022,02,28,02,08,0.00
2022,02,28,02,09,0.00
2022,02,28,02,10,0.00
2022,02,28,02,11,0.00
2022,02,28,02,12,0.00
2022,02,28,02,13,0.00
2022,02,28,02,14,0.00
2022,02,28,02,15,0.00
2022,02,28,02,16,0.00
2022,02,28,02,17,0.00
2022,02,28,02,18,0.00
2022,02,28,02,19,0.00
2022,02,28,02,20,0.00
2022,02,28,02,21,0.00
2022,02,28,02,22,0.00
2022,02,28,02,23,0.00
2022,02,28,02,24,0.00
2022,02,28,02,25,0.00
2022,02,28,02,26,0.00
2022,02,28,02,27,0.00
2022,02,28,02,28,0.00
2022,02,28,02,29,0.00
2022,02,28,02,30,0.00
2022,02,28,02,31,0.00
2022,02,28,02,32,0.00
2022,02,28,02,33,0.00
2022,02,28,02,34,0.00
2022,02,28,02,35,0.00
2022,02,28,02,36,0.00
2022,02,28,02,37,0.00
2022,02,28,02,38,0.00
2022,02,28,02,39,0.00
2022,02,28,02,40,0.00
2022,02,28,02,41,0.00
2022,02,28,02,42,0.00
2022,02,28,02,43,0.00
2022,02,28,02,44,0.00
2022,02,28,02,45,0.00
2022,02,28,02,46,0.00
2022,02,28,02,47,0.00
2022,02,28,02,48,0.00
2022,02,28,02,49,0.00
2022,02,28,02,50,0.00
2022,02,28,02,51,0.00
2022,02,28,02,52,0.00
2022,02,28,02,53,0.00
2022,02,28,02,54,0.00
2022,02,28,02,55,0.00
2022,02,28,02,56,0.00
2022,02,28,02,57,0.00
2022,02,28,02,58,0.00
2022,02,28,02,59,0.00
2022,02,28,03,00,0.00
2022,02,28,03,01,0.00
2022,02,28,03,02,0.00
2022,02,28,03,03,0.00
2022,02,28,03,04,0.00
2022,02,28,03,05,0.00
2022,02,28,03,06,0.00
2022,02,28,03,07,0.00
2022,02,28,03,08,0.00
2022,02,28,03,09,0.00
2022,02,28,03,10,0.00
2022,02,28,03,11,0.00
2022,02,28,03,12,0.00
2022,02,28,03,13,0.00
2022,02,28,03,14,0.00
2022,02,28,03,15,0.00
2022,02,28,03,16,0.00
2022,02,28,03,17,0.00
2022,02,28,03,18,0.00
2022,02,28,03,19,0.00
2022,02,28,03,20,0.00
2022,02,28,03,21,0.00
2022,02,28,03,22,0.00
2022,02,28,03,23,0.00
2022,02,28,03,24,0.00
2022,02,28,03,25,0.00
2022,02,28,03,26,0.00
2022,02,28,03,27,0.00
2022,02,28,03,28,0.00
2022,02,28,03,29,0.00
2022,02,28,03,30,0.00
2022,02,28,03,31,0.00
2022,02,28,03,32,0.00
2022,02,28,03,33,0.00
2022,02,28,03,34,0.00
2022,02,28,03,35,0.00
2022,02,28,03,36,0.00
2022,02,28,03,37,0.00
2022,02,28,03,38,0.00
2022,02,28,03,39,0.00
2022,02,28,03,40,0.00
2022,02,28,03,41,0.00
2022,02,28,03,42,0.00
2022,02,28,03,43,0.00
2022,02,28,03,44,0.00
2022,02,28,03,45,0.00
2022,02,28,03,46,0.00
2022,02,28,03,47,0.00
2022,02,28,03,48,0.00
2022,02,28,03,49,0.00
2022,02,28,03,50,0.00
2022,02,28,03,51,0.00
2022,02,28,03,52,0.00
2022,02,28,03,53,0.00
2022,02,28,03,54,0.00
2022,02,28,03,55,0.00
2022,02,28,03,56,0.00
2022,02,28,03,57,0.00
2022,02,28,03,58,0.00
2022,02,28,03,59,0.00
2022,02,28,04,00,0.00
2022,02,28,04,01,0.00
2022,02,28,04,02,0.00
2022,02,28,04,03,0.00
2022,02,28,04,04,0.00
2022,02,28,04,05,0.00
2022,02,28,04,06,0.00
2022,02,28,04,07,0.00
2022,02,28,04,08,0.00
2022,02,28,04,09,0.00
2022,02,28,04,10,0.00
2022,02,28,04,11,0.00
2022,02,28,04,12,0.00
2022,02,28,04,13,0.00
2022,02,28,04,14,0.00
2022,02,28,04,15,0.00
2022,02,28,04,16,0.00
2022,02,28,04,17,0.00
2022,02,28,04,18,0.00
2022,02,28,04,19,0.00
2022,02,28,04,20,0.00
2022,02,28,04,21,0.00
2022,02,28,04,22,0.00
2022,02,28,04,23,0.00
2022,02,28,04,24,0.00
2022,02,28,04,25,0.00
2022,02,28,04,26,0.00
2022,02,28,04,27,0.00
2022,02,28,04,28,0.00
2022,02,28,04,29,0.00
2022,02,28,04,30,0.00
2022,02,28,04,31,0.00
2022,02,28,04,32,0.00
2022,02,28,04,33,0.00
2022,02,28,04,34,0.00
2022,02,28,04,35,0.00
2022,02,28,04,36,0.00
2022,02,28,04,37,0.00
2022,02,28,04,38,0.00
2022,02,28,04,39,0.00
2022,02,28,04,40,0.00
2022,02,28,04,41,0.00
2022,02,28,04,42,0.00
2022,02,28,04,43,0.00
2022,02,28,04,44,0.00
2022,02,28,04,45,0.00
2022,02,28,04,46,0.00
2022,02,28,04,47,0.00
2022,02,28,04,48,0.00
2022,02,28,04,49,0.00
2022,02,28,04,50,0.00
2022,02,28,04,51,0.00
2022,02,28,04,52,0.00
2022,02,28,04,53,0.00
2022,02,28,04,54,0.00
2022,02,28,04,55,0.00
2022,02,28,04,56,0.00
2022,02,28,04,57,0.00
2022,02,28,04,58,0.00
2022,02,28,04,59,0.00
2022,02,28,05,00,0.00
2022,02,28,05,01,0.00
2022,02,28,05,02,0.00
2022,02,28,05,03,0.00
2022,02,28,05,04,0.00
2022,02,28,05,05,0.00
2022,02,28,05,06,0.00
2022,02,28,05,07,0.00
2022,02,28,05,08,0.00
2022,02,28,05,09,0.00
2022,02,28,05,10,0.00
2022,02,28,05,11,0.00
2022,02,28,05,12,0.00
2022,02,28,05,13,0.00
2022,02,28,05,14,0.00
2022,02,28,05,15,0.00
2022,02,28,05,16,0.00
2022,02,28,05,17,0.00
2022,02,28,05,18,0.00
2022,02,28,05,19,0.00
2022,02,28,05,20,0.00
2022,02,28,05,21,0.00
2022,02,28,05,22,0.00
2022,02,28,05,23,0.00
2022,02,28,05,24,0.00
2022,02,28,05,25,0.00
2022,02,28,05,26,0.00
2022,02,28,05,27,0.00
2022,02,28,05,28,0.00
2022,02,28,05,29,0.00
2022,02,28,05,30,0.00
2022,02,28,05,31,0.00
2022,02,28,05,32,0.00
2022,02,28,05,33,0.00
2022,02,28,05,34,0.00
2022,02,28,05,35,0.00
2022,02,28,05,36,0.00
2022,02,28,05,37,0.00
2022,02,28,05,38,0.00
2022,02,28,05,39,0.00
2022,02,28,05,40,0.00
2022,02,28,05,41,0.00
2022,02,28,05,42,0.00
2022,02,28,05,43,0.00
2022,02,28,05,44,0.00
2022,02,28,05,45,0.00
2022,02,28,05,46,0.00
2022,02,28,05,47,0.00
2022,02,28,05,48,0.00
2022,02,28,05,49,0.00
2022,02,28,05,50,0.00
2022,02,28,05,51,0.00
2022,02,28,05,52,0.00
2022,02,28,05,53,0.00
2022,02,28,05,54,0.00
2022,02,28,05,55,0.00
2022,02,28,05,56,0.00
2022,02,28,05,57,0.00
2022,02,28,05,58,0.00
2022,02,28,05,59,0.00
2022,02,28,06,00,0.00
2022,02,28,06,01,0.00
2022,02,28,06,02,0.00
2022,02,28,06,03,0.00
2022,02,28,06,04,0.00
2022,02,28,06,05,0.00
2022,02,28,06,06,0.00
2022,02,28,06,07,0.00
2022,02,28,06,08,0.00
2022,02,28,06,09,0.00
2022,02,28,06,10,0.00
2022,02,28,06,11,0.00
2022,02,28,06,12,0.00
2022,02,28,06,13,0.00
2022,02,28,06,14,0.00
2022,02,28,06,15,0.00
2022,02,28,06,16,0.00
2022,02,28,06,17,0.00
2022,02,28,06,18,0.00
2022,02,28,06,19,0.00
2022,02,28,06,20,0.00
2022,02,28,06,21,0.00
2022,02,28,06,22,0.00
2022,02,28,06,23,0.00
2022,02,28,06,24,0.00
2022,02,28,06,25,0.00
2022,02,28,06,26,0.00
2022,02,28,06,27,0.00
2022,02,28,06,28,0.00
2022,02,28,06,29,0.00
2022,02,28,06,30,0.00
2022,02,28,06,31,0.00
2022,02,28,06,32,0.00
2022,02,28,06,33,0.00
2022,02,28,06,34,0.00
2022,02,28,06,35,0.00
2022,02,28,06,36,0.00
2022,02,28,06,37,0.00
2022,02,28,06,38,0.00
2022,02,28,06,39,0.00
2022,02,28,06,40,0.00
2022,02,28,06,41,0.00
2022,02,28,06,42,0.00
2022,02,28,06,43,0.00
2022,02,28,06,44,0.00
2022,02,28,06,45,0.00
2022,02,28,06,46,0.00
2022,02,28,06,47,0.00
2022,02,28,06,48,0.00
2022,02,28,06,49,0.00
2022,02,28,06,50,0.00
2022,02,28,06,51,0.00
2022,02,28,06,52,0.00
2022,02,28,06,53,0.00
2022,02,28,06,54,0.00
2022,02,28,06,55,0.00
2022,02,28,06,56,0.00
2022,02,28,06,57,0.00
2022,02,28,06,58,0.00
2022,02,28,06,59,0.00
2022,02,28,07,00,0.00
2022,02,28,07,01,0.00
2022,02,28,07,02,0.00
2022,02,28,07,03,0.00
2022,02,28,07,04,0.00
2022,02,28,07,05,0.00
2022,02,28,07,06,0.00
2022,02,28,07,07,0.00
2022,02,28,07,08,0.00
2022,02,28,07,09,0.00
2022,02,28,07,10,0.00
2022,02,28,07,11,0.00
2022,02,28,07,12,0.00
2022,02,28,07,13,0.00
2022,02,28,07,14,0.00
2022,02,28,07,15,0.00
2022,02,28,07,16,0.00
2022,02,28,07,17,0.00
2022,02,28,07,18,0.00
2022,02,28,07,19,0.00
2022,02,28,07,20,0.00
2022,02,28,07,21,0.00
2022,02,28,07,22,0.00
2022,02,28,07,23,0.00
2022,02,28,07,24,0.00
2022,02,28,07,25,0.00
2022,02,28,07,26,0.00
2022,02,28,07,27,0.00
2022,02,28,07,28,0.00
2022,02,28,07,29,0.00
2022,02,28,07,30,0.00
2022,02,28,07,31,0.00
2022,02,28,07,32,0.00
2022,02,28,07,33,0.00
2022,02,28,07,34,0.00
2022,02,28,07,35,0.00
2022,02,28,07,36,0.00
2022,02,28,07,37,0.00
2022,02,28,07,38,0.00
2022,02,28,07,39,0.00
2022,02,28,07,40,0.00
2022,02,28,07,41,0.00
2022,02,28,07,42,0.00
2022,02,28,07,43,0.00
2022,02,28,07,44,0.00
2022,02,28,07,45,0.00
2022,02,28,07,46,0.00
2022,02,28,07,47,0.00
2022,02,28,07,48,0.00
2022,02,28,07,49,0.00
2022,02,28,07,50,0.00
2022,02,28,07,51,0.00
2022,02,28,07,52,0.00
2022,02,28,07,53,0.00
2022,02,28,07,54,0.00
2022,02,28,07,55,0.00
2022,02,28,07,56,0.00
2022,02,28,07,57,0.00
2022,02,28,07,58,0.00
2022,02,28,07,59,0.00
2022,02,28,08,00,0.00
2022,02,28,08,01,0.00
2022,02,28,08,02,0.00
2022,02,28,08,03,0.00
2022,02,28,08,04,0.00
2022,02,28,08,05,0.00
2022,02,28,08,06,0.00
2022,02,28,08,07,0.00
2022,02,28,08,08,0.00
2022,02,28,08,09,0.00
2022,02,28,08,10,0.00
2022,02,28,08,11,0.00
2022,02,28,08,12,0.00
2022,02,28,08,13,0.00
2022,02,28,08,14,0.00
2022,02,28,08,15,0.00
2022,02,28,08,16,0.00
2022,02,28,08,17,0.00
2022,02,28,08,18,0.00
2022,02,28,08,19,0.00
2022,02,28,08,20,0.00
2022,02,28,08,21,0.00
2022,02,28,08,22,0.00
2022,02,28,08,23,0.00
2022,02,28,08,24,0.00
2022,02,28,08,25,0.00
2022,02,28,08,26,0.00
2022,02,28,08,27,0.00
2022,02,28,08,28,0.00
2022,02,28,08,29,0.00
2022,02,28,08,30,0.00
2022,02,28,08,31,0.00
2022,02,28,08,32,0.00
2022,02,28,08,33,0.00
2022,02,28,08,34,0.00
2022,02,28,08,35,0.00
2022,02,28,08,36,0.00
2022,02,28,08,37,0.00
2022,02,28,08,38,0.00
2022,02,28,08,39,0.00
2022,02,28,08,40,0.00
2022,02,28,08,41,0.00
2022,02,28,08,42,0.00
2022,02,28,08,43,0.00
2022,02,28,08,44,0.00
2022,02,28,08,45,0.00
2022,02,28,08,46,0.00
2022,02,28,08,47,0.00
2022,02,28,08,48,0.00
2022,02,28,08,49,0.00
2022,02,28,08,50,0.00
2022,02,28,08,51,0.00
2022,02,28,08,52,0.00
2022,02,28,08,53,0.00
2022,02,28,08,54,3.30
2022,02,28,08,55,5.00
2022,02,28,08,56,5.00
2022,02,28,08,57,5.00
2022,02,28,08,58,5.00
2022,02,28,08,59,5.00
2022,02,28,09,00,5.00
2022,02,28,09,01,5.00
2022,02,28,09,02,5.30
2022,02,28,09,03,7.00
2022,02,28,09,04,7.00
2022,02,28,09,05,7.00
2022,02,28,09,06,7.00
2022,02,28,09,07,7.00
2022,02,28,09,08,7.00
2022,02,28,09,09,7.00
2022,02,28,09,10,7.00
2022,02,28,09,11,8.20
2022,02,28,09,12,9.00
2022,02,28,09,13,9.00
2022,02,28,09,14,9.00
2022,02,28,09,15,9.00
2022,02,28,09,16,9.00
2022,02,28,09,17,9.00
2022,02,28,09,18,9.00
2022,02,28,09,19,9.10
2022,02,28,09,20,11.00
2022,02,28,09,21,11.00
2022,02,28,09,22,11.00
2022,02,28,09,23,11.00
2022,02,28,09,24,11.00
2022,02,28,09,25,11.00
2022,02,28,09,26,11.00
2022,02,28,09,27,11.00
2022,02,28,09,28,11.00
2022,02,28,09,29,11.70
2022,02,28,09,30,12.00
2022,02,28,09,31,12.00
2022,02,28,09,32,12.00
2022,02,28,09,33,12.00
2022,02,28,09,34,12.00
2022,02,28,09,35,12.00
2022,02,28,09,36,13.60
2022,02,28,09,37,14.00
2022,02,28,09,38,14.00
2022,02,28,09,39,14.00
2022,02,28,09,40,14.00
2022,02,28,09,41,15.40
2022,02,28,09,42,16.00
2022,02,28,09,43,16.00
2022,02,28,09,44,16.00
2022,02,28,09,45,16.00
2022,02,28,09,46,16.00
2022,02,28,09,47,17.40
2022,02,28,09,48,18.00
2022,02,28,09,49,18.00
2022,02,28,09,50,18.00
2022,02,28,09,51,18.40
2022,02,28,09,52,19.00
2022,02,28,09,53,19.00
2022,02,28,09,54,19.00
2022,02,28,09,55,19.00
2022,02,28,09,56,19.00
2022,02,28,09,57,19.00
2022,02,28,09,58,19.00
2022,02,28,09,59,20.50
2022,02,28,10,00,21.00
2022,02,28,10,01,21.00
2022,02,28,10,02,21.00
2022,02,28,10,03,22.00
2022,02,28,10,04,23.00
2022,02,28,10,05,23.00
2022,02,28,10,06,23.20
2022,02,28,10,07,25.00
2022,02,28,10,08,25.00
2022,02,28,10,09,25.00
2022,02,28,10,10,25.00
2022,02,28,10,11,25.00
2022,02,28,10,12,25.10
2022,02,28,10,13,26.00
2022,02,28,10,14,26.00
2022,02,28,10,15,26.00
2022,02,28,10,16,26.00
2022,02,28,10,17,26.00
2022,02,28,10,18,27.90
2022,02,28,10,19,28.00
2022,02,28,10,20,28.00
2022,02,28,10,21,28.00
2022,02,28,10,22,28.00
2022,02,28,10,23,28.00
2022,02,28,10,24,28.00
2022,02,28,10,25,27.40
2022,02,28,10,26,26.00
2022,02,28,10,27,26.00
2022,02,28,10,28,26.00
2022,02,28,10,29,26.00
2022,02,28,10,30,26.00
2022,02,28,10,31,26.00
2022,02,28,10,32,26.90
2022,02,28,10,33,28.00
2022,02,28,10,34,28.00
2022,02,28,10,35,28.10
2022,02,28,10,36,30.00
2022,02,28,10,37,30.00
2022,02,28,10,38,30.00
2022,02,28,10,39,31.30
2022,02,28,10,40,32.00
2022,02,28,10,41,32.00
2022,02,28,10,42,32.20
2022,02,28,10,43,33.00
2022,02,28,10,44,33.00
2022,02,28,10,45,33.00
2022,02,28,10,46,34.60
2022,02,28,10,47,35.20
2022,02,28,10,48,37.00
2022,02,28,10,49,37.80
2022,02,28,10,50,39.00
2022,02,28,10,51,39.00
2022,02,28,10,52,39.00
2022,02,28,10,53,39.00
2022,02,28,10,54,38.50
2022,02,28,10,55,37.00
2022,02,28,10,56,37.00
2022,02,28,10,57,37.00
2022,02,28,10,58,37.00
2022,02,28,10,59,37.00
2022,02,28,11,00,37.00
2022,02,28,11,01,37.00
2022,02,28,11,02,37.00
2022,02,28,11,03,37.00
2022,02,28,11,04,38.70
2022,02,28,11,05,39.10
2022,02,28,11,06,40.00
2022,02,28,11,07,40.90
2022,02,28,11,08,42.00
2022,02,28,11,09,42.00
2022,02,28,11,10,42.10
2022,02,28,11,11,44.00
2022,02,28,11,12,44.00
2022,02,28,11,13,44.00
2022,02,28,11,14,45.20
2022,02,28,11,15,46.00
2022,02,28,11,16,46.00
2022,02,28,11,17,47.00
2022,02,28,11,18,47.70
2022,02,28,11,19,50.00
2022,02,28,11,20,51.00
2022,02,28,11,21,51.00
2022,02,28,11,22,52.80
2022,02,28,11,23,53.00
2022,02,28,11,24,53.00
2022,02,28,11,25,53.00
2022,02,28,11,26,53.00
2022,02,28,11,27,53.00
2022,02,28,11,28,53.00
2022,02,28,11,29,53.00
2022,02,28,11,30,52.30
2022,02,28,11,31,51.00
2022,02,28,11,32,51.00
2022,02,28,11,33,49.40
2022,02,28,11,34,48.80
2022,02,28,11,35,46.70
2022,02,28,11,36,46.00
2022,02,28,11,37,44.90
2022,02,28,11,38,42.60
2022,02,28,11,39,42.00
2022,02,28,11,40,40.00
2022,02,28,11,41,39.70
2022,02,28,11,42,39.00
2022,02,28,11,43,39.00
2022,02,28,11,44,37.60
2022,02,28,11,45,37.00
2022,02,28,11,46,37.00
2022,02,28,11,47,37.00
2022,02,28,11,48,37.00
2022,02,28,11,49,37.00
2022,02,28,11,50,37.00
2022,02,28,11,51,36.90
2022,02,28,11,52,35.00
2022,02,28,11,53,35.00
2022,02,28,11,54,35.90
2022,02,28,11,55,37.00
2022,02,28,11,56,37.00
2022,02,28,11,57,37.10
2022,02,28,11,58,39.00
2022,02,28,11,59,39.30
2022,02,28,12,00,40.00
2022,02,28,12,01,40.00
2022,02,28,12,02,41.50
2022,02,28,12,03,43.80
2022,02,28,12,04,44.00
2022,02,28,12,05,44.70
2022,02,28,12,06,46.50
2022,02,28,12,07,47.00
2022,02,28,12,08,47.00
2022,02,28,12,09,48.90
2022,02,28,12,10,49.00
2022,02,28,12,11,49.70
2022,02,28,12,12,51.00
2022,02,28,12,13,51.00
2022,02,28,12,14,51.00
2022,02,28,12,15,51.00
2022,02,28,12,16,51.00
2022,02,28,12,17,51.00
2022,02,28,12,18,51.00
2022,02,28,12,19,52.30
2022,02,28,12,20,53.00
2022,02,28,12,21,53.00
2022,02,28,12,22,53.00
2022,02,28,12,23,53.00
2022,02,28,12,24,53.00
2022,02,28,12,25,53.00
2022,02,28,12,26,53.00
2022,02,28,12,27,54.00
2022,02,28,12,28,54.00
2022,02,28,12,29,54.00
2022,02,28,12,30,54.00
2022,02,28,12,31,54.00
2022,02,28,12,32,55.80
2022,02,28,12,33,56.00
2022,02,28,12,34,56.00
2022,02,28,12,35,56.90
2022,02,28,12,36,58.00
2022,02,28,12,37,58.00
2022,02,28,12,38,59.90
2022,02,28,12,39,62.00
2022,02,28,12,40,62.30
2022,02,28,12,41,63.90
2022,02,28,12,42,65.00
2022,02,28,12,43,66.50
2022,02,28,12,44,66.90
2022,02,28,12,45,65.00
2022,02,28,12,46,64.30
2022,02,28,12,47,63.00
2022,02,28,12,48,63.00
2022,02,28,12,49,63.00
2022,02,28,12,50,63.00
2022,02,28,12,51,63.00
2022,02,28,12,52,63.00
2022,02,28,12,53,64.00
2022,02,28,12,54,65.00
2022,02,28,12,55,66.60
2022,02,28,12,56,67.10
2022,02,28,12,57,69.00
2022,02,28,12,58,69.00
2022,02,28,12,59,69.50
2022,02,28,13,00,70.00
2022,02,28,13,01,71.70
2022,02,28,13,02,72.00
2022,02,28,13,03,72.50
2022,02,28,13,04,74.00
2022,02,28,13,05,74.00
2022,02,28,13,06,74.00
2022,02,28,13,07,74.00
2022,02,28,13,08,74.00
2022,02,28,13,09,74.00
2022,02,28,13,10,74.90
2022,02,28,13,11,76.00
2022,02,28,13,12,76.00
2022,02,28,13,13,76.00
2022,02,28,13,14,76.00
2022,02,28,13,15,75.40
2022,02,28,13,16,74.00
2022,02,28,13,17,72.80
2022,02,28,13,18,70.50
2022,02,28,13,19,70.00
2022,02,28,13,20,69.00
2022,02,28,13,21,68.40
2022,02,28,13,22,67.00
2022,02,28,13,23,67.00
2022,02,28,13,24,68.60
2022,02,28,13,25,69.00
2022,02,28,13,26,69.00
2022,02,28,13,27,69.40
2022,02,28,13,28,70.00
2022,02,28,13,29,70.00
2022,02,28,13,30,69.20
2022,02,28,13,31,69.00
2022,02,28,13,32,69.00
2022,02,28,13,33,69.00
2022,02,28,13,34,69.00
2022,02,28,13,35,69.00
2022,02,28,13,36,69.00
2022,02,28,13,37,69.00
2022,02,28,13,38,68.60
2022,02,28,13,39,67.00
2022,02,28,13,40,67.00
2022,02,28,13,41,67.00
2022,02,28,13,42,65.40
2022,02,28,13,43,65.00
2022,02,28,13,44,65.00
2022,02,28,13,45,65.00
2022,02,28,13,46,65.00
2022,02,28,13,47,65.00
2022,02,28,13,48,65.00
2022,02,28,13,49,65.00
2022,02,28,13,50,65.00
2022,02,28,13,51,64.10
2022,02,28,13,52,63.00
2022,02,28,13,53,63.00
2022,02,28,13,54,63.00
2022,02,28,13,55,62.00
2022,02,28,13,56,62.00
2022,02,28,13,57,61.20
2022,02,28,13,58,60.00
2022,02,28,13,59,60.00
2022,02,28,14,00,58.20
2022,02,28,14,01,58.00
2022,02,28,14,02,58.00
2022,02,28,14,03,58.00
2022,02,28,14,04,58.00
2022,02,28,14,05,58.00
2022,02,28,14,06,58.00
2022,02,28,14,07,58.40
2022,02,28,14,08,60.00
2022,02,28,14,09,60.00
2022,02,28,14,10,60.00
2022,02,28,14,11,60.00
2022,02,28,14,12,60.10
2022,02,28,14,13,62.00
2022,02,28,14,14,62.40
2022,02,28,14,15,63.00
2022,02,28,14,16,64.30
2022,02,28,14,17,65.00
2022,02,28,14,18,66.90
2022,02,28,14,19,67.00
2022,02,28,14,20,67.70
2022,02,28,14,21,69.00
2022,02,28,14,22,69.70
2022,02,28,14,23,70.00
2022,02,28,14,24,70.20
2022,02,28,14,25,72.00
2022,02,28,14,26,72.00
2022,02,28,14,27,73.00
2022,02,28,14,28,74.00
2022,02,28,14,29,75.70
2022,02,28,14,30,76.00
2022,02,28,14,31,76.00
2022,02,28,14,32,76.00
2022,02,28,14,33,76.00
2022,02,28,14,34,76.00
2022,02,28,14,35,76.00
2022,02,28,14,36,76.00
2022,02,28,14,37,76.00
2022,02,28,14,38,76.00
2022,02,28,14,39,76.60
2022,02,28,14,40,77.00
2022,02,28,14,41,77.00
2022,02,28,14,42,77.00
2022,02,28,14,43,77.70
2022,02,28,14,44,79.00
2022,02,28,14,45,79.00
2022,02,28,14,46,79.00
2022,02,28,14,47,79.00
2022,02,28,14,48,79.40
2022,02,28,14,49,81.00
2022,02,28,14,50,81.00
2022,02,28,14,51,81.00
2022,02,28,14,52,82.60
2022,02,28,14,53,83.00
2022,02,28,14,54,83.20
2022,02,28,14,55,84.00
2022,02,28,14,56,84.00
2022,02,28,14,57,85.30
2022,02,28,14,58,87.60
2022,02,28,14,59,88.20
2022,02,28,15,00,90.00
2022,02,28,15,01,90.40
2022,02,28,15,02,92.10
2022,02,28,15,03,94.40
2022,02,28,15,04,95.00
2022,02,28,15,05,97.00
2022,02,28,15,06,98.50
2022,02,28,15,07,100.80
2022,02,28,15,08,103.10
2022,02,28,15,09,104.70
2022,02,28,15,10,106.70
2022,02,28,15,11,111.30
2022,02,28,15,12,113.30
2022,02,28,15,13,114.00
2022,02,28,15,14,116.40
2022,02,28,15,15,120.20
2022,02,28,15,16,122.90
2022,02,28,15,17,125.30
2022,02,28,15,18,127.30
2022,02,28,15,19,128.00
2022,02,28,15,20,131.60
2022,02,28,15,21,134.70
2022,02,28,15,22,136.90
2022,02,28,15,23,139.40
2022,02,28,15,24,141.30
2022,02,28,15,25,143.00
2022,02,28,15,26,145.30
2022,02,28,15,27,146.00
2022,02,28,15,28,147.90
2022,02,28,15,29,149.40
2022,02,28,15,30,151.00
2022,02,28,15,31,152.00
2022,02,28,15,32,153.00
2022,02,28,15,33,154.60
2022,02,28,15,34,155.00
2022,02,28,15,35,155.00
2022,02,28,15,36,155.00
2022,02,28,15,37,155.00
2022,02,28,15,38,153.70
2022,02,28,15,39,153.00
2022,02,28,15,40,150.90
2022,02,28,15,41,148.70
2022,02,28,15,42,147.30
2022,02,28,15,43,146.00
2022,02,28,15,44,144.70
2022,02,28,15,45,144.00
2022,02,28,15,46,142.00
2022,02,28,15,47,140.50
2022,02,28,15,48,139.00
2022,02,28,15,49,137.90
2022,02,28,15,50,135.60
2022,02,28,15,51,134.10
2022,02,28,15,52,131.80
2022,02,28,15,53,130.00
2022,02,28,15,54,129.10
2022,02,28,15,55,129.10
2022,02,28,15,56,128.60
2022,02,28,15,57,128.00
2022,02,28,15,58,127.00
2022,02,28,15,59,126.40
2022,02,28,16,00,125.00
2022,02,28,16,01,123.80
2022,02,28,16,02,121.50
2022,02,28,16,03,120.10
2022,02,28,16,04,117.30
2022,02,28,16,05,113.00
2022,02,28,16,06,110.00
2022,02,28,16,07,106.60
2022,02,28,16,08,104.20
2022,02,28,16,09,100.10
2022,02,28,16,10,96.30
2022,02,28,16,11,92.00
2022,02,28,16,12,89.00
2022,02,28,16,13,86.70
2022,02,28,16,14,84.40
2022,02,28,16,15,83.10
2022,02,28,16,16,82.50
2022,02,28,16,17,80.30
2022,02,28,16,18,78.00
2022,02,28,16,19,76.40
2022,02,28,16,20,74.40
2022,02,28,16,21,71.90
2022,02,28,16,22,69.80
2022,02,28,16,23,68.30
2022,02,28,16,24,66.00
2022,02,28,16,25,65.00
2022,02,28,16,26,65.00
2022,02,28,16,27,65.00
2022,02,28,16,28,65.00
2022,02,28,16,29,65.00
2022,02,28,16,30,66.10
2022,02,28,16,31,68.40
2022,02,28,16,32,69.00
2022,02,28,16,33,69.10
2022,02,28,16,34,70.00
2022,02,28,16,35,70.00
2022,02,28,16,36,70.00
2022,02,28,16,37,70.00
2022,02,28,16,38,70.00
2022,02,28,16,39,69.90
2022,02,28,16,40,69.00
2022,02,28,16,41,67.10
2022,02,28,16,42,65.00
2022,02,28,16,43,63.50
2022,02,28,16,44,64.70
2022,02,28,16,45,63.00
2022,02,28,16,46,63.60
2022,02,28,16,47,65.00
2022,02,28,16,48,65.00
2022,02,28,16,49,63.50
2022,02,28,16,50,62.10
2022,02,28,16,51,61.30
2022,02,28,16,52,57.30
2022,02,28,16,53,55.00
2022,02,28,16,54,53.30
2022,02,28,16,55,51.50
2022,02,28,16,56,49.00
2022,02,28,16,57,46.80
2022,02,28,16,58,45.30
2022,02,28,16,59,44.00
2022,02,28,17,00,44.00
2022,02,28,17,01,42.40
2022,02,28,17,02,41.90
2022,02,28,17,03,40.00
2022,02,28,17,04,39.60
2022,02,28,17,05,39.00
2022,02,28,17,06,37.60
2022,02,28,17,07,35.40
2022,02,28,17,08,33.10
2022,02,28,17,09,32.70
2022,02,28,17,10,31.20
2022,02,28,17,11,28.90
2022,02,28,17,12,28.00
2022,02,28,17,13,26.30
2022,02,28,17,14,26.00
2022,02,28,17,15,25.70
2022,02,28,17,16,25.00
2022,02,28,17,17,25.00
2022,02,28,17,18,23.60
2022,02,28,17,19,23.00
2022,02,28,17,20,23.00
2022,02,28,17,21,22.40
2022,02,28,17,22,21.00
2022,02,28,17,23,21.00
2022,02,28,17,24,19.50
2022,02,28,17,25,19.00
2022,02,28,17,26,19.00
2022,02,28,17,27,18.70
2022,02,28,17,28,18.00
2022,02,28,17,29,18.00
2022,02,28,17,30,18.00
2022,02,28,17,31,16.20
2022,02,28,17,32,16.00
2022,02,28,17,33,16.00
2022,02,28,17,34,16.00
2022,02,28,17,35,16.00
2022,02,28,17,36,16.00
2022,02,28,17,37,16.00
2022,02,28,17,38,16.00
2022,02,28,17,39,16.00
2022,02,28,17,40,16.00